Location: Boiro
(42.6475°N, 8.8834°W)
Time: 00:08:14
(UTC+01:00)

A-11 Canister half - Pass Details

Date: 05 December 2021
Orbit: 1516 x 1684 km, 47.2° (Epoch: 18 January)

Event Time Altitude Azimuth Distance (km) Brightness Sun altitude
Rises 07:46:24 0° 224° (SW) 4,722 11.3 -11.4°
Reaches altitude 10° 07:49:28 10° 221° (SW) 3,761 10.8 -10.9°
Maximum altitude 07:58:49 61° 144° (SE) 1,792 9.7 -9.3°
Drops below altitude 10° 08:08:33 10° 67° (ENE) 3,902 11.8 -7.7°
Sets 08:11:47 0° 64° (ENE) 4,909 12.3 -7.1°
